Weather Roundup
Issued by NWS Corpus Christi, TX

Home | Current Version | Previous Version | Text Only | Print | Product List | Glossary On
Versions: 1 2 3 4 5 6 7 8 9 10 11 12 13 14 15 16 17 18 19 20 21 22 23 24 25 26 27 28 29 30 31 32 33 34 35 36 37 38 39 40 41 42 43 44 45 46 47 48 49 50
000
ASUS44 KCRP 282310
HRRCRP

SOUTH TEXAS REGIONAL WEATHER ROUNDUP
NATIONAL WEATHER SERVICE CORPUS CHRISTI TX
600 PM CDT SAT MAR 28 2015


TXZ229>244-290000-
...CORPUS CHRISTI AREA OBSERVATIONS...

CITY           SKY/WX    TMP DP  RH WIND       PRES   REMARKS
CORPUS CHRISTI MOSUNNY   76  59  55 SE22G29   30.07S
NAS CORPUS CHR SUNNY     73  57  57 SE21G28   30.08S
ROCKPORT       SUNNY     73  57  57 SE16G25   30.09S
KINGSVILLE NAS SUNNY     84  50  30 S15       30.05R
ALICE          SUNNY     84  47  27 S14G23    30.03F
FALFURRIAS     SUNNY     82  45  26 SE14G21   30.04S
$$

...VICTORIA AREA OBSERVATIONS...

CITY           SKY/WX    TMP DP  RH WIND       PRES   REMARKS
VICTORIA       SUNNY     78  43  28 S21G28    30.08S
BEEVILLE       FAIR      81  50  34 S13G18    30.05S
PLEASANTON     SUNNY     83  42  23 S12       30.03F
SAN ANTONIO    SUNNY     82  41  23 S12       30.04S
$$

...LAREDO AREA OBSERVATIONS...

CITY           SKY/WX    TMP DP  RH WIND       PRES   REMARKS
LAREDO         SUNNY     86  43  22 S14       30.02F
COTULLA        SUNNY     87  35  15 SE13      30.00F
DEL RIO        SUNNY     87  38  17 SE12      29.95F
MCALLEN        SUNNY     82  45  27 SE15G25   30.06S
HEBBRONVILLE   NOT AVBL
$$

...OTHER TEXAS OBSERVATIONS...

CITY           SKY/WX    TMP DP  RH WIND       PRES   REMARKS
BROWNSVILLE    SUNNY     75  57  53 S21       30.10S
HOUSTON        SUNNY     81  40  23 SW13G22   30.05F
COL. STATION   SUNNY     81  41  24 S17       30.02F
AUSTIN         SUNNY     80  46  30 S16G22    30.01F
WACO           SUNNY     80  46  30 S15       29.96S
FORT WORTH     MOSUNNY   80  50  34 S10       29.95F
WICHITA FALLS  SUNNY     81  47  30 SE10      29.92F
LUBBOCK        MOSUNNY   85  27  12 NE3       29.96S
EL PASO        SUNNY     87   9   5 W13       30.04F
$$

...MARINE OBSERVATIONS...

STATION/POSITION TIME  SKY/WX   TEMP    WIND        PRES    VSBY  WAVE   SWELL
                                AIR SEA DIR/SP/G                  HT/PER HT/PER
                 (UTC)          (F)     (DEG/KT/KT) (MB)    (MI)  (FT/S) (FT/S)
PORT ARANSAS     2300            68 68  140/ 19/ 21 1019.8F
BUOY 90 E PORT A 2300            71 70  200/ 14/ 16 1020.4F         3/ 5
BUOY 45 SE BAFFI 2300            70 71  180/ 14/ 16 1019.0R         2/ 4
BUOY 200 E PT IS 2300            72 73  210/  8/ 10 1021.4R         1/ 5   2/ 5
BUOY 15 E GALVES 2300            67 66  180/  8/ 10 1019.5F         1/ 4
$$



USA.gov is the U.S. government's official web portal to all federal, state and local government web resources and services.